Wind_Speed
45 45 45 44 44 44 44 44 44 40 37 35 36 36 36 36 36 37 38 39 40 41 41 41 42 42 42 42 44 44 44 43 43 42 42 43 43 43 44 45 46 47 47 47
47 46 46 46 45 45 45 44 43 42 39 36 37 37 36 36 37 37 39 39 40 41 41 41 41 41 42 42 43 44 44 44 44 44 44 44 44 45 45 46 47 48 48 49
48 47 48 48 44 44 44 42 42 41 39 37 37 36 36 37 37 38 39 39 40 40 40 40 41 41 42 43 43 44 45 46 46 46 46 46 46 46 46 47 48 49 50 51
46 46 49 46 43 42 41 41 41 41 39 38 37 36 36 36 37 38 39 40 41 41 41 41 42 43 43 44 45 46 47 47 47 48 48 49 49 49 49 49 50 50 51 52
45 45 46 44 42 41 41 40 40 40 38 38 37 37 36 36 37 38 39 40 41 42 43 42 43 43 43 45 46 47 47 48 48 48 49 50 51 51 51 51 51 51 52 52
42 43 44 42 40 39 40 40 38 37 37 38 37 37 35 35 37 38 38 39 40 41 42 42 42 43 43 44 45 46 47 48 49 49 50 50 51 51 51 52 52 51 52 53
38 40 41 40 39 38 39 37 36 35 36 37 37 37 36 36 37 37 38 39 39 40 40 41 41 43 43 44 45 46 48 49 49 50 50 50 50 50 50 51 51 51 51 52
34 35 36 37 37 37 36 35 35 35 35 36 36 36 37 37 37 37 37 38 39 40 41 41 41 43 44 44 44 46 47 48 48 49 48 48 48 49 49 49 49 50 50 50
32 33 33 33 34 34 34 34 34 34 34 35 35 35 36 37 37 38 38 38 39 40 40 40 40 40 41 41 43 44 45 46 46 47 47 47 47 48 48 48 48 49 49 49
30 31 32 32 32 33 32 32 32 32 32 32 33 33 34 35 36 37 38 39 40 40 40 40 40 41 40 41 41 42 43 44 44 45 46 46 46 46 47 47 47 47 48 48
26 27 29 31 32 32 32 32 32 32 32 32 33 33 34 34 34 35 36 37 38 40 40 40 40 40 40 41 41 42 42 43 44 44 45 45 45 45 46 46 46 46 46 47
23 24 25 26 28 30 32 33 33 33 32 33 33 34 34 34 34 34 34 35 36 37 39 39 40 40 40 40 40 41 42 42 43 43 44 44 44 44 45 45 45 45 46 46
25 24 24 25 26 28 30 31 32 32 32 33 33 34 34 34 34 33 34 34 35 36 37 38 39 39 39 39 39 39 39 40 40 40 41 42 43 44 44 44 45 45 45 46
25 26 25 25 26 26 27 28 29 30 31 32 32 32 33 33 32 33 34 34 35 35 36 37 37 37 38 38 39 39 39 39 39 39 40 41 42 43 43 43 43 43 43 44
23 24 24 24 25 25 25 26 26 27 28 29 30 31 31 32 32 33 33 34 34 34 35 36 36 36 37 38 38 39 39 39 39 40 40 40 41 41 42 42 42 42 42 42
21 23 23 24 24 25 25 25 26 26 27 28 29 30 30 31 32 32 33 33 34 34 35 35 35 36 37 38 38 38 38 38 39 39 40 40 40 40 40 40 40 40 40 40
20 21 22 23 24 25 25 25 26 27 28 29 30 31 31 32 32 33 33 34 34 34 34 35 35 36 36 37 38 38 38 38 39 39 39 39 39 39 39 39 39 39 39 39
19 20 21 22 23 24 25 26 26 27 27 28 30 31 32 32 33 33 34 35 35 35 35 35 36 36 37 37 37 37 37 38 38 38 38 38 38 38 38 38 38 38 37 37
20 20 21 22 22 23 24 25 26 26 27 28 28 29 31 32 33 34 34 35 35 35 35 36 36 37 36 36 37 37 37 37 37 37 36 36 37 37 37 37 38 38 38 37
19 20 20 21 21 22 24 25 25 26 26 27 28 28 29 30 31 32 33 34 34 34 34 35 35 35 36 35 36 36 36 36 36 36 36 36 36 36 36 37 37 37 37 37
19 19 19 20 21 22 23 24 24 25 25 25 26 26 27 28 29 29 30 31 31 32 32 33 33 33 33 33 34 34 34 35 35 35 35 34 34 35 35 36 36 36 36 35
18 19 19 20 21 21 22 23 23 24 24 24 25 26 26 27 27 28 28 29 29 30 30 30 30 30 30 30 31 31 32 32 32 33 33 33 34 34 34 34 34 34 33 33
16 17 18 19 20 20 21 22 23 23 24 24 25 25 26 26 26 27 27 28 28 29 29 29 29 28 28 28 29 29 29 29 30 30 31 31 32 32 32 32 32 31 31 31
16 16 17 17 18 18 19 20 21 22 23 23 23 24 24 25 25 26 26 26 26 26 26 27 27 28 28 28 27 27 27 27 28 28 28 28 28 28 28 28 28 28 28 28
15 16 16 16 16 17 17 17 18 19 20 21 21 21 22 22 23 23 24 24 24 24 25 25 25 25 26 26 26 26 26 26 26 26 26 26 26 26 26 26 26 26 26 25
16 16 16 16 16 15 15 16 16 17 17 18 19 19 20 20 20 21 22 22 23 23 23 23 23 23 24 24 24 24 24 24 24 24 24 24 24 24 24 24 24 24 24 23
16 15 15 15 14 14 14 14 14 15 15 16 17 17 17 18 18 18 19 19 19 20 20 20 21 21 22 22 22 22 22 22 22 22 22 22 22 22 21 21 21 21 21 21
Wind_Direction
253 253 254 255 255 255 256 258 259 260 260 258 257 256 255 255 253 253 252 251 250 249 249 249 249 249 249 250 249 249 251 252 253 254 257 259 261 263 263 263 262 261 262 263
252 252 254 254 254 254 255 256 258 259 258 257 255 255 254 253 253 252 251 251 250 249 249 250 251 250 251 251 250 250 251 253 254 255 257 259 261 262 263 264 264 263 263 265
254 253 254 254 254 255 256 255 256 257 257 255 254 254 254 253 252 252 251 251 251 250 249 249 249 250 250 251 251 251 253 254 255 256 257 258 260 261 262 264 264 264 264 265
254 253 253 255 254 254 255 255 255 256 254 254 255 255 254 252 250 251 251 251 251 251 251 251 250 251 251 252 252 253 254 255 256 257 258 259 260 261 263 264 265 264 265 265
252 254 255 254 254 254 255 255 254 255 253 253 254 254 253 253 251 252 252 252 252 252 252 252 251 252 253 254 254 255 256 257 257 258 260 261 261 262 264 265 266 266 265 265
251 253 255 254 254 254 255 254 253 254 252 252 253 253 253 253 253 253 253 253 253 252 252 252 252 252 254 255 255 256 257 258 259 260 262 262 263 263 265 266 266 266 266 267
250 252 254 254 254 253 254 254 254 253 252 252 252 252 252 251 252 253 254 254 254 253 253 254 254 254 255 255 256 257 258 259 260 260 262 263 263 264 266 266 267 267 267 267
248 248 251 253 254 253 255 255 255 253 252 252 253 253 252 251 252 252 254 254 255 255 255 256 256 256 257 258 258 258 259 260 261 262 263 264 265 266 267 268 268 269 269 269
245 247 249 250 252 253 254 254 254 254 254 254 254 253 252 252 252 253 253 254 255 256 257 257 258 258 259 260 261 262 262 263 263 263 264 265 266 267 268 268 269 269 270 270
246 246 247 248 249 250 252 252 252 253 253 253 254 254 254 255 255 254 254 255 255 255 256 257 258 258 260 262 263 263 264 264 264 264 264 265 266 268 268 269 270 270 271 271
246 248 249 249 249 250 251 251 251 251 252 253 254 255 256 256 255 255 255 256 256 255 255 256 256 258 259 261 263 264 264 263 264 265 265 266 267 267 268 269 271 271 271 272
252 252 253 252 252 252 252 252 252 252 253 253 254 256 256 256 255 255 256 256 256 255 255 255 257 258 259 261 263 264 265 265 265 265 265 265 266 267 268 269 270 271 272 272
255 255 256 256 255 254 254 254 254 255 255 255 255 256 256 257 256 255 255 256 256 255 254 255 256 259 260 260 262 264 265 265 265 265 266 266 267 268 269 270 270 271 271 272
258 257 256 255 256 257 256 256 255 254 254 254 254 254 254 254 254 254 255 255 256 255 254 255 256 258 259 260 262 264 265 266 266 267 267 268 268 269 270 270 271 270 271 271
259 258 257 256 256 256 256 256 254 252 251 250 251 251 252 252 253 253 254 255 255 255 255 256 257 259 260 261 263 264 265 267 267 267 268 269 269 270 270 271 271 271 271 272
260 258 258 258 257 257 258 258 256 254 251 249 249 251 252 252 252 253 254 255 256 256 256 257 259 260 262 263 263 265 266 267 268 269 269 270 270 271 271 271 271 272 273 273
264 262 260 258 258 259 259 259 258 255 253 252 252 253 253 253 253 255 256 256 257 257 258 259 261 262 263 263 264 265 266 268 269 270 270 271 271 271 271 271 272 272 274 274
266 265 264 264 263 262 261 260 259 257 256 255 255 255 255 255 257 258 257 256 257 257 258 259 261 262 263 264 265 265 267 268 268 269 270 271 271 272 272 272 272 273 274 274
268 268 268 268 266 264 262 261 260 258 258 258 258 258 258 259 260 261 260 259 259 259 259 260 261 263 264 265 265 265 266 267 268 269 269 269 270 271 272 273 273 274 274 274
274 272 271 271 271 268 265 263 261 260 260 260 260 261 262 262 262 262 261 260 260 260 261 262 263 264 265 265 266 266 266 267 268 268 268 268 269 271 272 273 274 274 274 274
277 274 273 273 273 271 267 265 262 261 261 262 262 263 263 263 263 263 263 262 262 262 263 265 266 267 267 267 267 267 267 268 268 269 269 269 270 271 273 273 273 273 273 274
279 277 275 274 274 272 268 266 263 261 262 263 264 264 264 264 264 264 264 264 263 264 265 267 268 268 268 268 268 268 268 268 268 269 269 269 270 272 273 273 272 272 273 273
282 281 279 278 277 275 271 268 265 262 263 264 265 265 265 265 264 265 265 265 265 265 265 266 267 267 268 268 269 269 269 268 268 269 270 270 271 272 272 272 271 271 272 272
287 285 284 283 282 279 275 272 269 267 266 266 267 268 268 267 266 266 266 266 266 265 264 264 265 266 267 269 269 269 268 268 269 270 271 271 272 272 271 270 271 271 272 272
290 288 287 286 286 283 280 277 274 271 269 268 268 269 269 268 266 265 265 265 265 265 264 264 264 265 266 268 269 269 269 269 269 269 271 272 272 272 270 270 270 271 271 271
294 292 289 288 288 286 283 280 278 275 272 271 271 270 269 268 267 266 265 265 265 265 264 263 262 264 266 268 269 270 270 270 270 270 271 272 272 271 271 271 271 270 270 269
296 294 292 291 291 290 289 287 284 280 276 273 273 272 270 270 270 269 267 267 267 266 265 264 263 264 265 266 268 269 270 271 270 270 271 272 272 271 271 272 272 271 270 268
Height
5562 5564 5566 5568 5571 5572 5573 5575 5577 5580 5582 5585 5584 5584 5586 5587 5588 5590 5592 5595 5597 5600 5603 5606 5609 5612 5615 5618 5620 5623 5625 5628 5630 5632 5633 5635 5636 5637 5638 5638 5639 5640 5641 5642
5548 5551 5552 5554 5557 5560 5562 5564 5565 5567 5570 5573 5572 5573 5575 5577 5578 5580 5582 5585 5587 5590 5592 5595 5598 5601 5603 5606 5608 5611 5614 5616 5618 5620 5621 5622 5623 5624 5624 5625 5626 5627 5628 5628
5534 5537 5537 5540 5546 5548 5550 5552 5554 5555 5560 5561 5561 5563 5565 5566 5568 5570 5572 5574 5577 5579 5581 5584 5587 5589 5592 5594 5596 5599 5601 5603 5605 5607 5608 5609 5610 5611 5611 5612 5612 5613 5614 5614
5520 5523 5523 5531 5534 5536 5538 5540 5542 5544 5546 5548 5550 5551 5553 5555 5557 5559 5561 5563 5565 5568 5570 5572 5575 5577 5579 5582 5584 5586 5588 5590 5591 5593 5595 5596 5597 5597 5598 5598 5598 5598 5599 5599
5507 5508 5511 5517 5521 5524 5525 5528 5531 5532 5535 5537 5538 5540 5542 5544 5546 5548 5550 5552 5554 5556 5558 5561 5563 5565 5567 5569 5571 5573 5574 5576 5578 5579 5580 5582 5583 5583 5583 5583 5584 5584 5584 5584
5495 5496 5499 5506 5510 5511 5514 5516 5520 5521 5523 5525 5527 5529 5533 5533 5534 5536 5538 5540 5542 5544 5546 5549 5551 5552 5554 5556 5558 5559 5561 5562 5563 5565 5566 5567 5568 5569 5569 5569 5569 5569 5569 5569
5483 5485 5488 5494 5497 5499 5503 5506 5509 5510 5512 5514 5516 5519 5521 5522 5523 5525 5527 5528 5530 5532 5534 5536 5538 5540 5541 5543 5545 5546 5547 5548 5550 5550 5551 5552 5553 5554 5553 5554 5554 5554 5554 5554
5473 5475 5481 5483 5486 5489 5491 5494 5496 5498 5501 5503 5505 5507 5509 5511 5513 5514 5516 5518 5519 5521 5523 5525 5526 5527 5529 5530 5531 5533 5534 5535 5536 5536 5537 5537 5538 5538 5539 5539 5539 5539 5539 5539
5464 5468 5470 5472 5475 5477 5480 5483 5485 5488 5490 5492 5494 5496 5498 5500 5502 5504 5505 5507 5508 5510 5511 5513 5514 5515 5516 5517 5518 5519 5520 5521 5522 5522 5523 5523 5524 5524 5524 5524 5524 5525 5524 5525
5454 5457 5460 5462 5465 5467 5470 5473 5475 5477 5480 5482 5483 5485 5487 5489 5491 5492 5494 5495 5497 5498 5500 5501 5502 5503 5504 5505 5506 5506 5507 5508 5508 5509 5510 5510 5510 5510 5510 5510 5510 5510 5510 5510
5446 5449 5451 5453 5456 5458 5461 5463 5465 5467 5469 5471 5473 5475 5477 5478 5480 5481 5482 5484 5485 5487 5488 5489 5491 5492 5493 5493 5494 5495 5495 5496 5496 5496 5497 5497 5497 5497 5497 5497 5496 5496 5496 5496
5439 5441 5443 5445 5446 5448 5451 5453 5455 5457 5459 5461 5463 5465 5466 5468 5469 5470 5471 5472 5474 5475 5477 5478 5479 5481 5482 5482 5483 5483 5483 5484 5484 5484 5484 5484 5484 5484 5484 5484 5483 5483 5482 5482
5432 5433 5435 5436 5437 5439 5441 5443 5445 5447 5449 5451 5452 5454 5456 5457 5458 5459 5460 5461 5462 5464 5465 5467 5468 5469 5470 5471 5471 5471 5471 5471 5471 5471 5471 5471 5471 5471 5471 5471 5470 5469 5469 5468
5424 5425 5427 5428 5429 5430 5432 5433 5435 5437 5438 5440 5442 5443 5445 5446 5448 5449 5450 5451 5452 5453 5454 5455 5457 5458 5458 5459 5459 5459 5459 5459 5459 5459 5459 5459 5458 5458 5458 5457 5457 5457 5456 5455
5416 5417 5419 5420 5421 5422 5423 5424 5425 5427 5428 5430 5431 5433 5435 5436 5437 5439 5439 5440 5441 5442 5443 5444 5446 5446 5447 5447 5447 5448 5448 5448 5447 5447 5447 5446 5446 5446 5445 5445 5444 5444 5444 5443
5409 5410 5411 5412 5413 5414 5415 5416 5417 5418 5419 5420 5422 5423 5424 5426 5427 5428 5429 5430 5431 5432 5433 5434 5435 5435 5436 5436 5436 5436 5436 5436 5435 5435 5435 5434 5434 5434 5433 5433 5432 5432 5431 5431
5402 5403 5403 5404 5405 5406 5406 5407 5408 5408 5410 5411 5412 5413 5414 5416 5417 5418 5419 5419 5420 5421 5422 5423 5424 5424 5424 5425 5425 5425 5425 5425 5424 5423 5423 5423 5422 5422 5421 5421 5420 5420 5419 5418
5395 5395 5395 5396 5397 5397 5398 5398 5399 5400 5401 5401 5402 5403 5404 5405 5406 5407 5408 5408 5409 5410 5411 5412 5412 5413 5413 5413 5413 5413 5413 5413 5413 5412 5411 5411 5410 5410 5409 5409 5408 5408 5407 5406
5388 5388 5388 5388 5389 5389 5389 5390 5390 5391 5391 5392 5393 5393 5394 5395 5396 5397 5397 5398 5399 5400 5401 5401 5401 5402 5402 5402 5402 5402 5402 5401 5401 5401 5400 5399 5399 5398 5398 5397 5397 5396 5395 5394
5381 5381 5381 5381 5381 5381 5381 5381 5381 5382 5383 5383 5383 5384 5385 5385 5386 5386 5387 5388 5388 5389 5390 5390 5391 5391 5391 5391 5390 5390 5390 5390 5390 5389 5389 5388 5388 5387 5386 5386 5385 5384 5383 5383
5375 5375 5374 5374 5373 5373 5373 5373 5373 5373 5374 5374 5374 5375 5375 5376 5376 5376 5377 5377 5378 5378 5379 5379 5380 5380 5380 5380 5379 5379 5379 5379 5379 5378 5378 5377 5377 5376 5376 5375 5374 5373 5372 5371
5369 5368 5368 5367 5366 5366 5365 5365 5365 5365 5365 5366 5366 5366 5366 5366 5367 5367 5367 5367 5368 5368 5369 5369 5369 5369 5369 5369 5369 5369 5368 5368 5368 5367 5367 5366 5366 5365 5365 5364 5363 5362 5361 5360
5363 5362 5361 5360 5359 5359 5358 5357 5357 5357 5357 5357 5357 5357 5357 5357 5357 5357 5358 5358 5358 5358 5359 5359 5359 5359 5359 5359 5359 5359 5358 5358 5357 5357 5356 5356 5355 5354 5353 5353 5352 5351 5350 5350
5357 5356 5355 5353 5352 5351 5350 5350 5349 5349 5349 5348 5348 5348 5348 5348 5348 5348 5349 5349 5349 5349 5349 5350 5350 5350 5350 5349 5349 5349 5349 5348 5348 5347 5346 5345 5345 5344 5343 5343 5342 5341 5340 5340
5351 5350 5348 5347 5346 5345 5343 5343 5342 5341 5341 5341 5340 5340 5340 5340 5340 5340 5340 5340 5340 5341 5341 5341 5341 5341 5341 5340 5340 5340 5340 5339 5338 5338 5337 5337 5336 5335 5334 5334 5333 5332 5332 5331
5345 5344 5342 5341 5340 5339 5338 5337 5336 5335 5334 5334 5333 5333 5332 5332 5332 5332 5332 5332 5332 5332 5332 5332 5332 5332 5332 5332 5332 5331 5331 5330 5330 5329 5329 5328 5327 5326 5326 5325 5325 5324 5323 5323
5339 5338 5337 5335 5334 5333 5332 5331 5330 5329 5328 5327 5327 5326 5326 5325 5325 5325 5325 5325 5325 5325 5324 5324 5324 5324 5324 5324 5324 5323 5323 5322 5322 5321 5321 5320 5319 5319 5318 5317 5317 5316 5316 5315